CAPE
3473 3804 4377 3785 3388 3109 1873 893 707 663 675 735 1136 1247 1151 1195 1396 1818 2071 2087 1589 1784 1690 1619 1458 1565 1251 1372 1284 1085 1384 1461 1054 1371 1046 1492 3038 2993 3273 2962 1861 2728 1769
4237 3646 3279 3000 2399 1167 805 665 534 621 566 711 1029 1129 1225 1218 1485 1740 1867 1472 1608 1516 1519 1440 1518 1258 1769 1823 1405 1707 1472 1827 1875 2151 2011 1838 2158 2567 3227 3112 2346 2026 2524
3113 2885 2367 1614 993 766 577 673 847 847 744 530 1060 1341 1324 1344 1497 1638 1352 1634 1566 1484 1341 897 951 1338 1469 1513 1537 1542 1580 1657 1764 1965 1562 1629 1922 2526 2876 3207 3115 3014 2760
2113 1319 1098 926 716 642 1058 1259 1309 1498 1290 1343 1308 1437 1452 1469 1362 1526 1651 1563 1530 968 1114 1194 996 1138 1357 1585 1613 1789 1861 1796 1689 1548 1494 1266 1310 1902 2881 2627 1799 2188 2207
1068 971 996 1129 1331 1389 1714 1977 2069 2069 1474 1485 1519 1405 1364 1125 586 1127 899 1005 1219 960 894 801 895 925 695 732 1175 1349 1486 1510 1613 1216 1111 1022 1096 1549 1786 1995 2104 1864 2263
1089 1086 1197 1372 1802 2247 2495 2526 2667 2240 1859 1804 1594 1387 1287 630 460 482 350 909 889 835 908 997 1066 854 796 534 347 395 691 1155 1276 1378 1169 1097 1412 1202 1554 1771 2236 2160 2074
811 871 910 1449 1518 2112 2366 2306 2019 1813 1709 1617 1414 1345 1264 1204 726 533 212 725 767 792 1092 1214 910 673 701 816 835 553 251 166 301 1229 1255 1365 1409 1619 1779 2196 2165 2207 2027
220 161 289 748 859 1387 1775 1850 1787 1343 1494 1387 1270 1268 1301 1116 556 129 53 702 1098 1206 1309 1270 1108 1179 1142 651 632 851 1055 1129 1157 874 1159 1363 1546 1675 1666 2139 2610 2654 2727
48 256 406 489 540 632 1237 1459 930 1195 1291 1211 1038 1223 1248 1289 724 424 0 1284 1159 1208 1389 1372 1208 1191 505 26 82 311 396 726 457 207 423 602 520 450 808 1759 1939 2008 1813
207 261 311 337 494 664 1199 1102 1033 1009 847 919 963 1058 840 1190 764 367 0 1307 1241 1338 801 1090 231 25 7 0 0 38 73 6 323 696 985 417 77 295 144 998 1288 1202 1568
76 101 176 314 639 1101 1340 1140 817 900 1029 1036 873 1224 1174 1133 1231 467 11 481 519 452 213 35 4 42 27 0 0 1 23 33 1 242 744 1013 1235 1617 1565 1132 1589 1427 1502
59 88 217 561 356 391 1165 958 708 1092 949 959 537 466 294 1146 692 516 53 0 17 97 47 50 73 55 0 0 0 0 0 0 2 9 101 628 1031 1427 1421 1732 1696 1648 1661
21 43 80 160 265 650 870 680 975 883 774 200 66 190 420 426 1216 421 0 14 0 1 108 58 11 0 0 0 11 0 0 0 6 12 8 142 778 918 1523 1580 1568 1751 1858
16 16 22 255 196 473 419 669 865 313 333 52 59 64 10 101 179 529 154 12 46 23 101 103 0 0 0 0 15 36 10 5 13 2 8 188 573 1060 1199 1541 1577 1521 1379
15 19 25 32 101 386 692 521 346 682 507 183 63 7 2 4 15 1 0 0 4 0 0 0 4 304 215 203 52 8 16 5 14 9 12 199 701 1000 1117 1372 1362 1284 949
17 20 13 9 65 230 342 385 241 4 0 0 0 1 1 0 1 1 1 1 0 0 0 17 244 354 240 220 23 51 13 13 15 14 79 399 655 620 915 961 844 663 571
28 2 13 29 182 187 504 297 917 760 14 1 0 0 2 1 1 2 1 1 1 0 0 41 355 522 422 291 49 77 28 59 16 9 1 30 147 386 360 479 526 310 675
14 4 108 45 77 58 81 513 732 763 123 31 11 0 0 0 1 1 1 1 42 15 52 324 254 467 476 304 147 31 58 60 33 13 19 15 50 172 314 390 598 709 843
9 73 21 33 52 22 20 63 26 84 6 47 28 2 0 0 1 0 0 207 199 52 303 86 171 546 461 294 235 182 65 69 15 3 0 15 11 5 2 103 160 165 238
7 5 4 3 4 4 3 7 8 23 9 22 14 10 2 5 4 7 6 8 41 4 41 448 357 680 592 292 56 171 153 108 55 40 40 63 9 10 20 11 5 4 4
11 9 3 4 9 5 5 7 11 2 11 17 25 7 0 10 7 12 10 9 3 0 77 64 81 10 21 21 0 0 5 4 36 73 60 39 6 0 0 1 6 3 1
6 2 1 4 6 8 8 11 9 6 13 14 13 9 0 8 11 13 7 8 9 10 9 5 2 1 0 0 0 0 0 0 0 0 56 70 62 2 2 0 0 0 0
0 2 5 13 9 1 5 5 4 8 10 10 9 4 5 8 7 4 5 14 9 5 9 5 3 1 1 0 0 0 0 0 0 0 0 13 90 72 54 30 4 0 0
0 0 0 0 0 0 0 0 0 0 6 7 6 2 1 1 1 0 2 2 2 5 5 6 4 2 1 0 0 0 0 0 0 0 0 13 71 23 21 17 63 14 6
0 0 0 0 0 0 0 0 0 0 0 1 2 4 0 0 0 0 0 0 0 5 1 1 0 0 0 0 0 0 0 0 0 0 0 44 32 49 62 66 112 64 77
0 0 0 0 0 0 0 0 0 0 0 0 0 0 0 0 0 0 0 0 0 0 0 0 0 1 0 0 0 0 0 0 0 0 0 200 182 39 36 23 99 46 67
CIN
-0 -0 -0 -0 -0 -1 -31 -56 -71 -76 -76 -61 -34 -23 -22 -17 -8 -0 -0 -0 -0 -0 -0 -0 -0 -0 -0 -0 -0 -0 -0 -1 -4 -0 -0 -0 -6 -4 -0 -0 -4 -0 -1
-0 -0 -0 -0 -4 -44 -60 -71 -72 -74 -78 -48 -11 -0 -0 -0 -0 -0 -0 -0 -0 -0 -0 -0 -0 -0 -0 -0 -0 -0 -0 -0 -2 -0 -0 -0 -3 -19 -2 -4 -12 -1 -0
-0 -0 -3 -14 -36 -59 -71 -68 -65 -66 -57 -55 -1 -0 -0 -0 -0 -0 -0 -0 -0 -0 -0 -0 -0 -0 -0 -0 -0 -0 -0 -0 -0 -0 -0 -0 -0 -0 -7 -5 -1 -3 -1
-23 -48 -39 -62 -70 -72 -52 -36 -24 -10 -4 -0 -0 -0 -0 -0 -0 -0 -0 -0 -0 -0 -0 -0 -0 -0 -0 -0 -0 -0 -0 -0 -0 -0 -0 -0 -0 -0 -3 -1 -0 -0 -4
-113 -93 -75 -78 -63 -42 -12 -1 -0 -0 -0 -0 -0 -0 -0 -0 -0 -8 -5 -0 -0 -0 -0 -0 -0 -1 -8 -10 -1 -0 -0 -0 -0 -0 -0 -0 -0 -0 -0 -4 -1 -0 -0
-90 -81 -67 -49 -9 -0 -0 -0 -0 -0 -0 -0 -0 -0 -0 -0 -3 -31 -55 -0 -0 -0 -0 -0 -0 -1 -5 -13 -33 -40 -30 -1 -0 -0 -0 -0 -0 -0 -0 -0 -0 -0 -0
-88 -75 -60 -6 -1 -0 -0 -0 -0 -0 -0 -0 -0 -0 -0 -0 -2 -18 -59 -1 -0 -0 -0 -0 -0 -0 -16 -0 -1 -20 -115 -119 -92 -3 -0 -0 -0 -0 -1 -0 -0 -0 -0
-138 -140 -97 -25 -2 -0 -0 -0 -0 -0 -0 -0 -0 -0 -0 -0 -2 -46 -70 -4 -0 -0 -0 -0 -0 -0 -0 -4 -0 -0 -0 -0 -0 -3 -0 -0 -0 -0 -0 -0 -0 -0 -0
-174 -92 -54 -29 -12 -0 -0 -0 -0 -0 -0 -0 -0 -0 -0 -0 -2 -10 -0 -0 -0 -0 -0 -0 -0 -0 -0 -31 -26 -0 -0 -0 -2 -30 -35 -20 -39 -35 -6 -0 -0 -0 -0
-77 -55 -36 -20 -2 -0 -0 -0 -0 -0 -0 -0 -0 -0 -0 -0 -1 -14 -1 -0 -0 -0 -22 -3 -3 -16 -38 -0 -33 -5 -0 -1 -0 -0 -0 -54 -0 -103 -154 -14 -0 -0 -0
-84 -63 -26 -3 -0 -0 -0 -0 -0 -0 -0 -0 -0 -0 -0 -0 -0 -3 -40 -9 -0 -1 -0 -2 -1 -34 -112 -0 -0 -0 -21 -3 -0 -4 -0 -0 -0 -0 -0 -0 -0 -0 -0
-83 -41 -1 -0 -0 -0 -0 -0 -0 -0 -0 -0 -1 -0 -4 -0 -0 -5 -43 -0 -12 -8 -24 -11 -30 -88 -0 -0 -0 -0 -0 -0 -0 -0 -42 -0 -0 -0 -0 -0 -0 -0 -0
-0 -2 -14 -4 -0 -0 -0 -0 -0 -0 -0 -2 -55 -6 -0 -2 -0 -3 -0 -23 -0 -70 -37 -53 -128 -0 -0 -0 -32 -0 -0 -0 -0 -0 -0 -57 -0 -0 -2 -0 -0 -0 -0
-0 -0 -38 -0 -24 -0 -0 -0 -5 -5 -3 -4 -0 -0 -0 -1 -0 -1 -0 -16 -33 -90 -45 -26 -0 -0 -0 -0 -0 -3 -6 -0 -0 -0 -0 -35 -3 -0 -0 -0 -0 -0 -0
-0 -0 -0 -121 -62 -14 -0 -12 -11 -0 -12 -0 -0 -0 -0 -0 -0 -18 -0 -0 -81 -0 -0 -0 -15 -3 -5 -1 -20 -17 -2 -0 -4 -0 -2 -26 -0 -0 -0 -0 -0 -0 -0
-0 -0 -0 -0 -114 -48 -11 -6 -30 -8 -3 -0 -0 -0 -0 -0 -0 -0 -0 -0 -0 -0 -0 -53 -9 -4 -0 -0 -47 -4 -7 -0 -15 -17 -19 -0 -0 -0 -0 -0 -0 -0 -0
-0 -0 -0 -182 -83 -77 -5 -12 -0 -2 -27 -46 -0 -0 -0 -0 -0 -0 -0 -0 -0 -0 -0 -82 -15 -0 -0 -0 -1 -0 -0 -0 -0 -45 -2 -101 -36 -0 -0 -0 -0 -3 -0
-0 -2 -116 -0 -185 -176 -133 -2 -0 -0 -0 -4 -12 -0 -0 -0 -0 -0 -0 -2 -42 -10 -3 -9 -0 -0 -0 -1 -1 -5 -6 -2 -1 -0 -5 -75 -54 -3 -0 -0 -0 -0 -0
-0 -0 -0 -0 -84 -0 -4 -113 -0 -6 -0 -0 -5 -0 -0 -0 -0 -0 -0 -6 -9 -47 -9 -41 -38 -0 -1 -5 -3 -8 -9 -0 -6 -7 -0 -0 -0 -0 -0 -30 -4 -49 -14
-0 -2 -0 -0 -0 -0 -0 -0 -0 -11 -0 -0 -0 -0 -0 -0 -0 -0 -0 -1 -38 -60 -75 -1 -8 -0 -0 -9 -37 -28 -25 -9 -5 -10 -16 -5 -14 -0 -0 -0 -0 -0 -0
-0 -0 -1 -0 -0 -0 -0 -0 -0 -0 -0 -0 -0 -0 -0 -0 -0 -0 -0 -0 -0 -0 -5 -7 -12 -45 -49 -65 -0 -0 -99 -135 -71 -3 -31 -39 -16 -0 -0 -0 -0 -0 -0
-0 -0 -0 -0 -0 -0 -0 -0 -0 -0 -0 -0 -0 -0 -0 -0 -0 -0 -0 -0 -0 -0 -0 -0 -0 -0 -0 -0 -0 -0 -0 -0 -0 -0 -52 -41 -56 -36 -157 -26 -0 -0 -0
-0 -0 -0 -0 -0 -1 -0 -0 -0 -0 -0 -0 -0 -0 -0 -0 -0 -0 -0 -0 -0 -0 -0 -0 -0 -0 -0 -0 -0 -0 -0 -0 -0 -0 -0 -133 -38 -14 -46 -48 -32 -0 -0
-0 -0 -0 -0 -0 -0 -0 -0 -0 -0 -0 -0 -0 -0 -0 -0 -0 -0 -0 -0 -0 -0 -0 -0 -0 -0 -0 -0 -0 -0 -0 -0 -0 -0 -0 -133 -36 -42 -49 -38 -11 -19 -9
-0 -0 -0 -0 -0 -0 -0 -0 -0 -0 -0 -0 -0 -0 -0 -0 -0 -0 -0 -0 -0 -0 -0 -0 -0 -0 -0 -0 -0 -0 -0 -0 -0 -0 -0 -33 -49 -61 -23 -2 -7 -0 -5
-0 -0 -0 -0 -0 -0 -0 -0 -0 -0 -0 -0 -0 -0 -0 -0 -0 -0 -0 -0 -0 -0 -0 -0 -0 -0 -0 -0 -0 -0 -0 -0 -0 -0 -0 -4 -0 -38 -28 -28 -3 -17 -1
Wind_Speed
12 11 10 9 7 6 5 5 5 4 6 8 10 11 12 13 14 13 13 14 17 16 15 15 17 17 14 13 13 13 12 10 14 11 12 12 12 10 10 6 8 10 10
9 8 8 8 6 5 6 7 6 6 8 10 11 11 12 13 14 15 16 16 16 16 15 16 16 12 15 15 13 16 15 13 10 15 13 12 15 10 8 9 9 11 11
6 7 7 7 7 6 7 7 7 9 11 13 12 12 13 14 15 15 17 16 16 16 15 16 16 16 14 13 14 13 12 11 12 11 13 12 13 12 8 7 8 9 11
3 4 4 4 6 8 8 9 10 10 12 13 13 14 14 14 15 16 15 15 15 15 14 15 15 16 16 14 14 15 13 13 13 13 12 13 11 12 8 7 11 9 12
4 3 6 7 8 10 10 11 11 12 13 14 15 15 15 14 14 9 10 14 13 14 15 15 15 16 17 16 12 14 14 11 11 13 14 13 12 10 12 10 11 11 12
4 6 8 9 10 11 11 12 12 13 13 14 15 15 16 14 12 14 13 14 15 15 15 15 15 19 18 19 22 23 21 16 16 12 13 14 15 12 11 11 10 8 11
6 8 10 10 11 12 13 13 13 13 13 15 15 16 16 15 12 17 15 13 14 15 16 14 16 14 15 18 18 15 18 22 23 18 18 16 16 15 12 11 13 12 13
9 10 11 11 12 13 13 14 13 12 13 13 15 16 16 13 14 14 13 14 14 16 17 17 15 16 15 13 16 18 19 18 17 15 18 19 18 16 14 13 13 12 10
10 10 11 11 13 13 14 13 14 14 14 14 15 15 16 15 15 15 12 14 15 16 14 16 16 16 14 7 13 15 19 19 18 19 22 21 17 16 16 10 10 10 11
10 11 12 13 14 15 14 14 14 14 14 13 14 15 17 17 16 14 11 10 13 11 14 15 10 9 8 9 12 14 14 16 18 20 18 16 18 19 18 16 13 11 13
11 12 13 14 14 14 13 12 12 14 13 14 15 14 15 15 16 13 13 10 10 10 10 11 12 9 13 15 15 12 18 17 18 17 17 14 13 13 13 14 17 15 14
13 14 14 14 12 12 14 13 14 13 13 13 13 13 11 12 13 12 8 8 10 10 12 11 12 16 12 14 13 20 23 23 14 13 13 14 11 11 13 12 16 16 15
13 13 13 14 14 14 13 13 11 10 10 11 11 12 12 9 10 11 10 8 9 9 10 13 17 19 18 15 16 20 26 11 12 11 11 13 13 14 11 10 13 16 15
12 13 14 13 12 13 11 12 7 9 12 12 11 11 11 10 9 7 7 10 10 9 11 11 14 19 20 15 14 12 13 10 11 11 9 10 9 10 10 9 9 9 9
13 14 14 12 13 13 10 8 11 10 7 10 8 6 7 8 8 8 8 11 10 10 12 11 11 9 7 7 8 12 13 8 9 9 9 10 10 10 11 9 9 9 10
12 11 12 12 12 12 11 12 8 5 8 12 10 7 7 11 18 15 15 15 13 11 8 11 9 7 3 5 8 11 11 18 7 8 8 9 9 9 9 8 6 7 9
11 12 10 12 10 12 10 12 11 9 4 9 9 11 10 13 18 18 17 15 12 6 7 9 6 7 5 4 5 8 10 11 15 4 6 7 7 8 8 9 8 8 11
13 13 9 9 8 10 11 11 10 9 8 10 8 10 13 18 19 19 15 13 3 5 9 6 7 7 6 5 5 5 9 11 13 15 8 5 7 7 7 9 9 9 8
10 8 11 10 10 12 10 10 9 9 8 9 7 9 12 19 15 10 12 9 9 9 10 8 10 9 7 7 7 4 7 8 10 13 16 14 9 7 6 1 2 3 4
9 9 9 9 7 10 10 11 10 11 10 8 7 9 11 10 9 9 10 11 10 9 10 9 9 9 9 9 8 8 8 7 7 7 6 7 12 12 10 8 7 8 7
7 8 10 8 8 8 9 9 9 8 10 10 9 10 15 9 10 9 10 9 9 11 10 12 12 13 12 12 12 12 12 10 7 3 2 5 8 10 11 9 7 11 10
4 6 7 7 8 9 9 10 10 10 8 8 10 9 14 8 8 8 9 9 10 12 10 11 11 11 11 12 13 12 13 12 13 14 8 2 4 6 7 5 7 8 10
7 8 3 4 6 8 8 8 9 9 9 10 9 9 10 10 9 10 11 9 8 10 11 11 12 12 13 12 13 14 14 14 12 11 10 12 8 6 3 6 8 8 7
8 9 8 8 8 7 6 6 6 8 9 8 9 10 10 11 12 13 11 10 11 11 11 11 12 17 14 14 13 13 14 14 12 14 13 9 8 5 4 3 7 4 7
8 8 9 7 6 6 5 8 3 4 4 5 6 6 8 10 9 8 9 11 11 8 9 10 11 16 18 21 22 24 23 20 18 19 11 8 6 9 9 7 5 4 8
8 9 8 8 8 9 8 8 9 9 4 3 2 3 3 4 6 9 10 8 9 8 10 10 14 16 18 17 21 22 22 23 22 25 16 14 12 10 12 7 13 8 5
Wind_Direction
200 198 214 204 208 204 231 254 273 290 297 297 296 296 294 293 290 281 272 270 265 264 266 266 272 270 267 269 276 276 269 248 258 267 260 276 274 277 285 264 240 247 255
191 199 192 207 215 230 232 261 278 287 291 284 283 288 286 281 278 273 270 273 279 278 276 274 272 269 261 256 258 269 282 288 283 278 279 282 285 283 257 244 254 268 268
171 201 210 219 223 249 273 285 288 286 281 285 289 287 286 285 282 277 278 274 274 275 279 282 280 281 275 267 266 267 262 263 262 260 265 264 262 277 268 250 249 252 269
191 224 248 268 287 292 297 289 281 280 285 287 289 289 286 285 283 278 273 281 283 281 283 281 277 274 272 269 263 261 259 259 260 261 257 260 259 261 273 259 258 244 250
26 311 307 316 305 295 287 283 286 289 290 293 289 289 289 285 278 303 289 279 279 282 276 270 272 271 265 266 264 262 264 260 258 257 260 260 256 249 243 253 258 264 268
329 320 315 307 300 291 283 280 279 282 291 290 289 291 291 289 308 310 296 289 287 284 278 276 276 273 266 258 251 250 249 252 254 253 257 259 260 257 245 240 243 252 255
330 321 317 312 302 293 286 285 285 291 291 287 291 290 291 292 282 275 264 275 281 280 280 277 273 282 303 295 292 276 258 247 240 250 254 248 254 247 253 251 238 237 245
329 320 316 312 308 308 303 296 294 295 296 299 294 292 292 289 274 270 266 274 275 272 268 271 271 272 272 282 296 299 283 274 263 249 245 252 251 250 247 239 244 248 254
326 328 321 316 313 311 307 312 314 300 293 293 294 295 296 297 289 286 282 285 282 275 272 261 265 269 282 279 289 289 287 283 277 252 240 248 256 243 233 233 236 225 239
338 326 325 323 318 314 310 302 297 291 289 293 296 293 292 289 283 275 281 284 275 271 264 253 246 273 279 281 286 285 284 284 286 280 271 250 239 239 224 227 234 234 235
327 326 319 318 317 301 305 306 303 300 295 291 293 291 297 289 292 281 272 272 281 288 307 306 297 324 284 266 260 266 265 277 275 271 263 258 251 245 232 220 223 225 231
336 324 322 312 311 313 313 311 311 303 303 301 288 291 288 305 292 289 275 243 290 289 281 289 293 273 268 263 265 266 262 258 259 250 261 251 249 236 229 224 226 226 233
320 316 313 314 314 313 313 315 309 298 293 303 317 320 317 300 303 296 267 309 266 250 278 270 271 295 288 283 270 280 288 256 241 231 234 247 247 245 256 236 230 229 232
320 315 306 302 312 306 311 293 300 306 327 325 317 316 309 318 308 309 327 324 303 284 272 292 299 281 264 264 286 309 293 244 229 228 230 244 240 243 235 229 232 225 227
323 311 314 331 317 311 308 326 312 314 345 321 309 304 309 313 311 303 294 294 305 300 320 286 290 298 321 336 326 309 324 270 232 227 223 229 229 231 233 226 225 228 229
325 327 332 311 313 316 334 308 282 257 301 285 266 244 286 271 286 285 281 272 266 260 266 276 287 296 4 337 335 326 328 341 243 220 224 231 233 230 223 222 219 222 235
323 323 313 311 316 330 328 322 336 332 240 298 305 297 281 278 297 296 295 296 295 204 258 275 9 6 12 358 323 330 325 346 350 240 227 234 239 235 207 209 209 223 238
324 300 314 322 335 332 334 333 337 335 352 341 353 358 335 326 323 317 311 305 11 276 263 341 38 37 13 358 356 5 11 9 12 11 350 241 237 230 217 219 216 226 232
323 318 338 338 352 337 343 335 4 352 341 356 347 348 349 335 324 343 334 344 10 354 358 22 2 36 18 12 354 355 48 23 28 26 23 352 22 27 28 334 208 250 196
332 345 340 329 350 349 354 347 358 341 4 343 2 6 348 348 4 2 6 358 5 357 338 357 6 23 12 15 5 344 21 45 36 33 32 15 48 32 31 33 53 60 38
335 347 357 354 352 358 350 343 0 8 354 349 20 9 350 9 1 3 5 359 350 347 348 2 7 11 6 8 5 359 4 359 18 1 60 24 47 69 52 36 29 54 50
33 6 6 358 353 2 1 6 9 3 352 5 360 359 351 15 12 2 6 8 1 351 9 9 13 20 12 13 1 6 2 351 353 346 358 218 136 118 115 110 106 83 64
357 342 341 34 15 13 10 21 6 8 0 3 4 5 358 2 12 7 359 5 359 14 1 21 16 22 20 20 17 10 2 349 337 336 344 332 351 42 153 146 121 114 114
4 348 347 355 36 12 17 22 16 11 4 10 4 0 7 5 3 360 357 1 358 360 20 18 21 15 17 20 13 6 4 348 324 339 328 315 331 7 36 23 78 81 113
358 354 347 355 2 7 336 291 53 30 17 8 358 355 6 358 355 352 338 347 355 356 18 21 15 14 11 14 9 0 350 342 336 334 331 332 30 345 15 357 61 65 87
359 2 354 354 358 348 354 4 355 2 24 46 309 317 7 351 355 354 352 349 350 348 6 7 8 10 15 10 5 352 352 347 345 340 332 5 13 16 3 349 347 1 36